Location: Bijele Vode
(45.2833°N, 16.2000°E)
Time: 12:14:35
(UTC+00:00)

CENTAUR R/B - Pass Details

Date: 17 January 2021
Orbit: 742 x 1446 km, 63.5° (Epoch: 02 March)

Event Time Altitude Azimuth Distance (km) Brightness Sun altitude
Rises 17:09:15 0° 311° (NW) 4,307 6.4 -15.1°
Reaches altitude 10° 17:13:02 10° 294° (WNW) 3,425 6.1 -15.8°
Maximum altitude 17:18:24 19° 255° (WSW) 2,888 6.0 -16.7°
Drops below altitude 10° 17:23:58 10° 215° (SW) 3,551 6.1 -17.6°
Sets 17:28:02 0° 199° (SSW) 4,521 6.4 -18.3°
